Location: Jihlava
(49.4000°N, 15.5830°E)
Time: 09:03:46
(UTC+02:00)

ISS - Visible Passes

Search period start: 20 October 2021 00:00
Search period end: 30 October 2021 00:00
Orbit: 417 x 423 km, 51.6° (Epoch: 20 October)

Date Brightness Start Highest point End Pass type
(mag) Time Alt. Az. Time Alt. Az. Time Alt. Az.
21 Oct -0.4 06:16:09 10° SE 06:16:36 10° SE 06:17:01 10° SE visible
23 Oct -1.5 06:15:57 10° SSW 06:18:42 23° SE 06:21:27 10° E visible
24 Oct -1.1 05:29:55 11° S 05:31:46 16° SE 05:33:56 10° E visible
25 Oct -0.6 04:45:16 10° SE 04:45:16 10° SE 04:45:39 10° ESE visible
25 Oct -3.0 06:18:17 13° SW 06:21:07 49° SSE 06:24:23 10° ENE visible
26 Oct -2.5 05:33:31 32° S 05:34:07 35° SSE 05:37:14 10° E visible
27 Oct -1.0 04:48:39 18° ESE 04:48:39 18° ESE 04:50:00 10° E visible
27 Oct -3.8 06:21:39 21° WSW 06:23:45 88° NNW 06:27:09 10° ENE visible
28 Oct -3.7 05:36:44 71° SSE 05:36:45 71° SSE 05:40:07 10° ENE visible
29 Oct -1.1 04:51:47 21° E 04:51:47 21° E 04:53:06 10° ENE visible
29 Oct -3.6 06:24:47 24° W 06:26:39 61° N 06:30:00 10° ENE visible
